User: anonymous
Location: Hiram
(41.3130°N, 81.1440°W)
Time: 00:01:37
(UTC-04:00)
Language:

Iridium 62 - Orbit

View from above orbital plane
View from above orbital plane
View from above satellite
View from above satellite

Ground track
Ground track

The orbit data is extracted from the following two-line orbital elements,

1 25285U 98021A   14273.43098027  .00000273  00000-0  90307-4 0  9526
2 25285 086.3918 278.0263 0002306 102.3764 257.7690 14.34219214863016
Epoch (UTC): 30 September 2014 10:20:36
Eccentricity: 0.0002306
inclination: 86.3918°
perigee height: 776 km
apogee height: 779 km
right ascension of ascending node: 278.0263°
argument of perigee: 102.3764°
revolutions per day: 14.34219214
mean anomaly at epoch: 257.7690°
orbit number at epoch: 86301

The dashed part of the orbit path shows where the satellite is in the earth's shadow,  

DLR